CAPE
0 0 0 0 0 0 0 0 0 0 0 0 0 0 0 0 0 0 0 0 0 0 0 0 0 0 0 0 0 0 0 0 0 0 0 0 0 0 0 0 0 0 0 0 2 58 286
0 0 0 0 0 0 0 0 0 0 0 0 0 0 0 0 0 0 0 0 0 0 0 0 0 0 0 0 0 0 0 0 0 0 0 0 0 0 0 0 0 0 0 0 4 13 148
0 0 0 0 0 0 0 0 0 0 0 0 0 0 0 0 0 0 0 0 0 0 0 0 0 0 0 0 0 0 0 0 0 0 0 0 0 0 0 0 0 0 0 0 0 0 6
0 0 0 0 0 0 0 0 0 0 0 0 0 0 0 0 0 0 0 0 0 0 0 0 0 0 0 0 0 0 0 0 0 0 0 0 0 0 0 0 0 0 0 0 0 0 0
0 0 0 0 0 0 0 0 0 0 0 0 0 1 0 0 0 0 0 0 0 0 0 0 0 0 0 0 0 0 0 0 0 0 0 0 0 0 0 0 0 0 0 0 0 0 0
0 0 0 0 0 0 0 0 0 0 0 0 0 2 0 0 0 0 0 0 0 0 0 0 0 0 0 0 0 0 0 0 0 0 0 0 0 0 0 0 0 0 0 0 0 0 0
0 0 0 0 0 0 0 0 0 0 0 0 0 0 1 0 0 0 0 0 0 0 0 0 0 0 0 0 0 0 0 0 0 0 0 0 0 0 0 0 0 0 0 0 0 0 0
0 0 0 0 0 0 0 0 0 0 0 0 0 0 0 0 0 0 0 0 0 0 0 0 0 0 0 0 0 0 0 0 0 0 0 0 0 0 0 0 0 0 0 0 0 0 0
0 0 0 0 0 0 0 0 0 0 0 0 0 0 0 1 0 0 0 0 0 0 0 0 0 0 0 0 0 0 0 0 0 0 0 0 0 0 0 0 0 0 0 0 0 0 0
0 0 0 0 0 0 0 0 0 0 1 1 0 0 0 0 0 0 0 0 0 0 0 0 0 0 0 0 0 0 0 0 0 0 0 0 0 0 0 0 0 0 0 0 0 0 0
0 0 0 0 0 0 0 0 0 1 0 1 1 1 0 0 0 0 0 0 0 0 0 0 0 0 0 0 0 0 0 0 0 0 0 0 0 0 0 0 0 0 0 0 0 0 0
0 0 0 0 0 0 0 0 0 0 2 1 0 0 0 0 0 0 0 0 0 0 0 0 0 0 0 0 0 0 0 0 0 0 0 0 0 0 0 0 0 0 0 0 0 0 0
0 0 0 0 0 0 0 0 0 0 1 0 1 0 0 0 0 0 0 0 0 0 0 0 0 0 0 0 0 0 0 0 0 0 0 0 0 0 0 0 0 0 0 0 0 0 0
0 0 0 0 0 0 0 0 0 0 0 0 0 0 0 0 0 0 0 0 0 0 0 0 0 0 0 0 0 0 0 0 0 0 0 0 0 0 0 0 0 0 0 0 0 0 0
0 0 0 0 0 0 0 0 0 0 0 0 0 0 0 0 0 0 0 0 0 0 0 0 0 0 0 0 0 0 0 0 0 0 0 0 0 0 0 0 0 0 0 0 0 0 0
0 0 0 0 0 0 0 0 0 0 0 0 0 0 0 0 0 0 0 0 0 0 0 0 0 0 0 0 0 0 0 0 0 0 0 0 0 0 0 0 0 0 0 0 0 0 0
1 1 0 0 0 0 0 0 0 0 0 0 0 0 0 0 0 0 0 0 0 0 0 0 0 0 1 0 0 0 0 0 0 0 0 0 0 0 0 0 0 0 0 0 0 0 0
0 0 0 0 0 0 0 0 0 0 0 0 0 0 0 0 0 0 0 0 0 0 0 0 0 0 29 9 0 0 0 0 0 0 0 0 0 0 0 0 0 0 0 0 0 0 0
0 0 0 0 0 0 0 0 0 0 0 0 0 0 0 0 0 0 0 0 0 0 0 0 0 0 0 3 4 0 0 0 0 0 0 0 0 0 0 0 0 0 0 0 0 0 0
2 1 0 0 0 0 0 0 0 0 0 0 0 0 0 0 0 0 0 0 0 0 0 0 0 0 0 0 0 0 0 0 0 0 0 0 0 0 0 0 0 0 0 0 0 0 0
1 0 0 1 0 0 0 0 0 0 0 0 0 0 0 0 0 0 0 0 0 0 0 0 0 0 0 0 0 0 0 0 0 0 0 0 0 0 0 0 0 0 0 0 0 0 0
2 2 2 0 1 0 0 0 0 0 0 0 0 0 0 0 0 0 0 0 0 0 0 0 0 0 0 0 0 0 0 0 0 0 0 0 0 0 0 0 0 0 0 0 0 0 0
2 2 2 1 1 0 0 0 0 0 0 0 0 0 0 0 0 0 0 0 0 0 0 0 0 0 0 0 0 0 0 0 0 0 0 0 0 0 0 0 0 0 0 0 0 0 0
1 2 1 1 1 0 0 0 0 0 0 0 0 0 0 0 0 0 0 0 0 0 0 0 0 0 0 0 0 0 0 0 0 0 0 0 0 0 0 0 0 0 0 0 0 0 0
1 1 0 0 1 1 0 0 0 0 0 0 0 0 0 0 0 0 0 0 0 0 0 0 0 0 0 0 0 0 0 0 0 0 0 0 0 0 0 0 0 0 0 0 0 0 0
1 2 2 0 1 1 0 0 0 0 0 0 0 0 0 0 0 0 0 0 0 0 0 0 0 0 0 0 0 0 0 0 0 0 0 0 0 0 0 0 0 0 0 0 0 0 0
1 3 2 1 2 0 1 1 0 0 0 0 0 0 0 0 0 0 0 0 0 0 0 0 0 0 0 0 0 0 0 0 0 0 0 0 0 0 0 0 0 0 0 0 0 0 0
0 1 1 0 1 1 0 0 0 1 0 0 0 0 0 0 0 0 0 0 0 0 0 0 0 0 0 0 0 0 0 0 0 0 0 0 0 0 0 0 0 0 0 0 0 0 0
0 0 1 2 1 1 1 0 0 2 0 0 0 0 0 0 0 0 0 0 0 0 0 0 0 0 0 0 0 0 0 0 0 0 0 0 0 0 0 0 0 0 0 0 0 0 0
CIN
0 0 0 0 0 0 0 0 0 0 0 0 0 0 0 0 0 0 0 0 0 0 0 0 0 0 0 0 0 0 0 0 0 0 0 0 0 0 0 0 0 0 0 0 -8 -35 -40
0 0 0 0 0 0 0 0 0 0 0 0 0 0 0 0 0 0 0 0 0 0 0 0 0 0 0 0 0 0 0 0 0 0 0 0 0 0 0 0 0 0 0 0 -14 -35 -46
0 0 0 0 0 0 0 0 0 0 0 0 0 0 0 0 0 0 0 0 0 0 0 0 0 0 0 0 0 0 0 0 0 0 0 0 0 0 0 0 0 0 0 0 0 0 -9
0 0 0 0 0 0 0 0 0 0 0 0 0 0 0 0 0 0 0 0 0 0 0 0 0 0 0 0 0 0 0 0 0 0 0 0 0 0 0 0 0 0 0 0 0 0 0
0 0 0 0 0 0 0 0 0 0 0 0 0 0 0 0 0 0 0 0 0 0 0 0 0 0 0 0 0 0 0 0 0 0 0 0 0 0 0 0 0 0 0 0 0 0 0
0 0 0 0 0 0 0 0 0 0 0 0 0 -1 0 0 0 0 0 0 0 0 0 0 0 0 0 0 0 0 0 0 0 0 0 0 0 0 0 0 0 0 0 0 0 0 0
0 0 0 0 0 0 0 0 0 0 0 0 0 0 0 0 0 0 0 0 0 0 0 0 0 0 0 0 0 0 0 0 0 0 0 0 0 0 0 0 0 0 0 0 0 0 0
0 0 0 0 0 0 0 0 0 0 0 0 0 0 0 0 0 0 0 0 0 0 0 0 0 0 0 0 0 0 0 0 0 0 0 0 0 0 0 0 0 0 0 0 0 0 0
0 0 0 0 0 0 0 0 0 0 0 0 0 0 0 0 0 0 0 0 0 0 0 0 0 0 0 0 0 0 0 0 0 0 0 0 0 0 0 0 0 0 0 0 0 0 0
0 0 0 0 0 0 0 0 0 0 0 0 0 0 0 0 0 0 0 0 0 0 0 0 0 0 0 0 0 0 0 0 0 0 0 0 0 0 0 0 0 0 0 0 0 0 0
0 0 0 0 0 0 0 0 0 0 0 0 0 0 0 0 0 0 0 0 0 0 0 0 0 0 0 0 0 0 0 0 0 0 0 0 0 0 0 0 0 0 0 0 0 0 0
0 0 0 0 0 0 0 0 0 0 0 0 0 0 0 0 0 0 0 0 0 0 0 0 0 0 0 0 0 0 0 0 0 0 0 0 0 0 0 0 0 0 0 0 0 0 0
0 0 0 0 0 0 0 0 0 0 0 0 0 0 0 0 0 0 0 0 0 0 0 0 0 0 0 0 0 0 0 0 0 0 0 0 0 0 0 0 0 0 0 0 0 0 0
0 0 0 0 0 0 0 0 0 0 0 0 0 0 0 0 0 0 0 0 0 0 0 0 0 0 0 0 0 0 0 0 0 0 0 0 0 0 0 0 0 0 0 0 0 0 0
0 0 0 0 0 0 0 0 0 0 0 0 0 0 0 0 0 0 0 0 0 0 0 0 0 0 0 0 0 0 0 0 0 0 0 0 0 0 0 0 0 0 0 0 0 0 0
0 0 0 0 0 0 0 0 0 0 0 0 0 0 0 0 0 0 0 0 0 0 0 0 0 0 0 0 0 0 0 0 0 0 0 0 -3 0 0 0 0 0 0 0 0 0 0
0 0 0 0 0 0 0 0 0 0 0 0 0 0 0 0 0 0 0 0 0 0 0 0 0 0 -37 0 0 0 0 0 0 0 0 0 0 0 0 0 0 0 0 0 0 0 0
0 0 0 0 0 0 0 0 0 0 0 0 0 0 0 0 0 0 0 0 0 0 0 0 0 0 -159 -93 0 0 0 0 0 0 0 0 0 0 0 0 0 0 0 0 0 0 0
0 0 0 0 0 0 0 0 0 0 0 0 0 0 0 0 0 0 0 0 0 0 0 0 0 0 0 -96 -58 0 0 0 0 0 0 0 0 0 0 0 0 0 0 0 0 0 0
0 0 0 0 0 0 0 0 0 0 0 0 0 0 0 0 0 0 0 0 0 0 0 0 0 0 0 0 0 0 0 0 0 0 0 0 0 0 0 0 0 0 0 0 0 0 0
0 0 0 0 0 0 0 0 0 0 0 0 0 0 0 0 0 0 0 0 0 0 0 0 0 0 0 0 0 0 0 0 0 0 0 0 0 0 0 0 0 0 0 0 0 0 0
0 0 0 0 0 0 0 0 0 0 0 0 0 0 0 0 0 0 0 0 0 0 0 0 0 0 0 0 0 0 0 0 0 0 0 0 0 0 0 0 0 0 0 0 0 0 0
0 0 0 0 0 0 0 0 0 0 0 0 0 0 0 0 0 0 0 0 0 0 0 0 0 0 0 0 0 0 0 0 0 0 0 0 0 0 0 0 0 0 0 0 0 0 0
0 0 0 0 0 0 0 0 0 0 0 0 0 0 0 0 0 0 0 0 0 0 0 0 0 0 0 0 0 0 0 0 0 0 0 0 0 0 0 0 0 0 0 0 0 0 0
0 0 0 0 0 0 0 0 0 0 0 0 0 0 0 0 0 0 0 0 0 0 0 0 0 0 0 0 0 0 0 0 0 0 0 0 0 0 0 0 0 0 0 0 0 0 0
0 0 0 0 0 0 0 0 0 0 0 0 0 0 0 0 0 0 0 0 0 0 0 0 0 0 0 0 0 0 0 0 0 0 0 0 0 0 0 0 0 0 0 0 0 0 0
0 0 0 0 0 0 0 0 0 0 0 0 0 0 0 0 0 0 0 0 0 0 0 0 0 0 0 0 0 0 0 0 0 0 0 0 0 0 0 0 0 0 0 0 0 0 0
0 0 0 0 0 0 0 0 0 0 0 0 0 0 0 0 0 0 0 0 0 0 0 0 0 0 0 0 0 0 0 0 0 0 0 0 0 0 0 0 0 0 0 0 0 0 0
0 0 -1 0 0 0 0 0 0 0 0 0 0 0 0 0 0 0 0 0 0 0 0 0 0 0 0 0 0 0 0 0 0 0 0 0 0 0 0 0 0 0 0 0 0 0 0
Wind_Speed
24 23 23 23 23 23 23 23 23 22 21 22 23 24 24 24 24 24 24 23 23 22 21 21 21 21 19 21 25 22 21 18 18 15 15 15 15 15 12 12 12 13 13 15 18 18 18
25 25 24 24 24 24 24 24 24 23 22 22 23 24 25 25 25 25 24 23 23 22 21 20 19 18 18 23 21 19 17 17 17 15 15 15 15 14 13 13 11 15 14 8 17 17 17
26 26 26 25 25 25 25 25 25 24 23 23 24 24 25 25 25 25 24 23 22 21 20 19 18 18 21 26 19 21 21 20 20 21 21 19 16 15 16 13 15 15 14 14 12 16 13
26 26 26 26 26 26 26 26 26 25 24 24 24 24 24 25 25 24 24 23 22 20 19 19 18 18 21 21 22 23 23 24 24 23 24 21 18 17 14 16 14 14 14 14 11 12 12
27 27 27 27 27 28 27 27 27 26 26 25 25 25 24 24 24 24 23 22 21 20 19 18 17 17 19 19 24 24 24 24 21 20 21 22 18 15 13 13 14 14 13 14 17 13 12
28 28 29 29 29 29 29 28 28 27 27 26 26 25 24 23 23 22 22 21 19 18 16 17 18 15 19 15 20 22 22 21 17 17 16 15 13 13 14 14 15 17 17 18 13 16 17
28 28 29 29 29 30 30 30 29 28 27 27 26 25 23 22 21 20 17 16 15 16 20 22 16 16 15 15 18 22 25 19 16 14 18 13 13 17 20 18 19 21 21 21 19 19 17
28 28 29 29 29 30 30 30 30 28 28 27 26 24 23 21 20 19 18 16 15 15 18 24 23 23 21 18 14 19 8 9 10 11 10 14 22 24 22 20 21 21 19 20 20 19 18
28 28 29 30 30 30 30 31 31 30 28 27 25 23 22 20 19 19 19 19 17 15 16 19 21 21 21 8 13 25 8 14 12 14 16 18 22 17 23 23 23 22 21 18 21 18 20
29 29 30 30 31 31 31 31 31 30 28 26 24 23 21 19 18 17 19 16 19 16 13 17 19 21 13 10 17 8 16 9 15 15 16 21 23 21 23 23 13 17 15 17 16 17 19
29 30 30 31 30 31 31 31 31 30 28 25 24 22 20 19 17 18 16 17 13 13 10 13 14 14 8 7 11 3 7 6 15 16 15 22 24 21 20 16 10 18 19 18 17 17 19
30 30 30 30 30 31 31 32 31 30 27 24 23 21 19 18 20 22 19 16 13 14 11 13 11 11 6 9 14 11 4 9 14 18 18 26 25 24 21 21 14 17 17 17 16 18 17
29 29 29 29 31 32 32 31 32 29 26 23 21 21 20 19 19 18 17 14 14 12 13 12 13 11 7 8 14 9 8 14 11 12 17 20 23 20 19 16 16 14 15 16 16 14 18
28 28 28 30 30 30 30 31 31 28 24 22 21 20 23 26 21 17 16 14 15 13 15 14 12 7 7 8 12 7 7 8 20 14 16 16 13 14 13 10 13 14 16 17 17 19 18
27 27 29 29 29 29 29 30 29 26 23 20 16 18 21 23 29 21 16 17 15 14 12 12 7 8 13 16 12 7 8 13 17 22 15 12 14 13 13 13 16 16 19 16 15 18 15
28 25 27 28 28 28 29 29 28 25 21 17 15 17 20 18 14 17 17 18 16 15 14 12 10 12 14 17 11 8 10 16 18 24 15 17 15 14 14 11 14 15 15 20 17 16 16
25 25 25 26 28 28 29 28 27 24 19 14 14 15 17 17 17 18 20 19 18 18 16 16 15 13 14 10 9 8 11 15 15 12 10 13 16 17 15 15 15 16 16 16 14 14 15
27 25 25 26 26 28 27 27 26 23 17 14 13 14 17 17 20 20 20 18 19 19 19 18 15 17 10 10 11 10 13 17 14 16 17 18 18 21 15 16 16 15 16 17 17 18 17
27 25 25 25 26 26 26 26 25 21 16 14 11 12 17 18 22 21 20 21 22 20 18 13 13 17 15 9 11 7 9 17 17 16 15 16 19 23 22 21 20 19 21 18 16 17 18
26 25 24 25 25 25 25 25 24 22 15 12 13 16 18 22 21 21 21 21 20 22 17 12 12 12 10 14 14 9 12 15 15 14 16 17 20 22 24 23 23 24 24 23 20 20 17
24 25 24 24 24 23 24 24 23 22 15 14 13 15 16 20 24 26 23 24 27 24 17 15 14 14 9 16 13 11 8 10 16 19 19 19 20 18 18 20 21 24 27 26 23 20 18
23 23 23 22 22 23 22 22 23 22 15 11 14 14 15 16 19 19 15 18 18 17 19 19 11 13 12 14 16 13 13 17 20 19 19 19 21 19 22 21 24 22 26 21 17 16 18
24 24 24 23 22 21 21 21 21 21 14 13 15 15 15 14 13 12 13 14 16 12 13 10 8 11 14 14 14 15 15 18 18 17 20 19 17 22 25 24 25 21 25 19 15 16 9
24 23 23 23 22 21 21 20 20 20 17 14 15 17 16 15 13 13 14 12 13 13 9 13 15 15 15 17 16 17 18 18 16 20 20 19 17 18 21 22 24 17 14 15 14 15 13
25 25 24 23 22 22 21 21 20 20 19 15 16 17 17 17 17 16 16 16 15 15 14 16 18 18 18 20 23 25 25 25 22 23 13 14 15 19 20 19 17 15 17 17 16 17 14
26 25 25 25 24 24 23 22 22 21 21 16 16 17 17 18 19 20 19 19 17 18 18 19 20 21 21 21 22 24 23 21 21 18 14 12 14 16 18 20 20 16 15 16 13 20 14
30 29 28 27 26 26 25 24 23 23 23 19 18 19 17 21 20 20 19 21 19 19 19 20 23 21 21 20 21 22 22 19 21 21 18 15 17 15 17 20 21 16 17 15 21 23 11
32 31 31 30 29 28 27 26 25 25 24 22 19 20 18 20 24 19 19 19 20 20 20 22 19 20 19 19 19 19 20 19 19 19 18 16 17 18 19 22 24 16 18 20 18 16 16
33 33 32 31 31 30 29 28 27 26 25 23 19 22 22 17 21 21 27 25 18 17 18 19 19 18 17 18 18 18 19 18 18 19 18 19 17 19 20 20 18 19 17 18 18 18 20
Wind_Direction
334 329 326 322 320 318 317 315 311 302 296 290 285 283 280 277 271 269 267 265 263 262 261 262 266 270 266 253 235 242 250 259 259 274 285 304 313 309 298 304 328 37 43 73 96 103 118
336 332 326 323 320 317 315 313 310 304 298 293 286 282 279 275 271 267 264 261 258 254 252 252 251 253 259 242 245 254 260 261 261 276 278 291 285 264 276 301 349 319 311 21 122 119 116
334 332 329 324 321 318 314 312 309 304 298 295 290 283 277 274 270 266 262 258 253 248 246 246 244 229 230 199 229 244 242 247 256 245 233 226 246 268 265 275 280 291 329 335 33 126 78
333 330 327 324 322 319 316 312 309 304 298 295 292 286 278 273 270 264 259 253 246 239 235 233 231 220 211 203 221 215 215 220 218 217 224 232 241 268 265 250 276 301 331 358 95 67 66
330 330 328 324 321 319 316 313 309 305 299 294 292 287 280 274 268 262 256 249 239 229 222 219 226 223 210 225 202 200 192 209 234 248 242 251 267 262 269 300 305 306 327 351 335 115 16
329 329 329 327 322 319 316 313 309 305 300 294 291 288 283 275 266 260 254 241 235 237 239 231 220 236 214 231 209 202 207 216 236 253 263 274 267 263 271 301 299 294 296 301 96 167 147
329 328 328 324 322 319 316 313 309 305 299 294 290 288 282 274 263 258 258 245 248 244 225 199 231 230 227 228 217 203 193 223 246 263 239 267 258 251 236 255 259 260 253 239 281 213 153
326 325 325 322 320 318 315 313 310 304 299 294 289 286 279 269 256 250 242 239 242 241 238 205 203 209 212 222 232 207 281 292 283 268 278 259 236 215 230 262 262 260 234 284 271 247 157
325 324 323 322 320 317 313 312 311 306 299 292 285 281 275 263 252 243 235 234 244 268 247 232 221 215 209 47 239 164 65 259 274 268 258 252 230 277 256 254 246 238 263 280 255 264 226
328 326 325 324 320 318 316 314 312 307 299 290 281 276 269 257 246 239 231 247 248 237 264 244 240 237 273 317 269 92 130 322 273 267 276 260 253 265 257 256 294 276 288 277 270 267 254
330 330 327 324 319 319 316 314 312 307 301 289 278 270 260 246 241 228 237 259 243 253 273 256 259 278 307 19 323 21 96 347 278 267 285 256 258 272 274 286 337 278 273 263 271 274 271
330 329 326 323 319 318 316 316 313 307 298 287 276 263 253 243 235 226 243 242 243 259 269 263 278 279 309 304 294 334 65 309 300 264 271 247 260 266 258 269 297 293 289 286 284 279 256
327 325 323 321 321 320 317 315 315 308 295 283 269 253 242 236 229 238 240 235 246 264 258 272 280 284 295 311 277 336 64 126 285 286 276 272 262 274 269 286 284 290 287 264 264 275 261
322 321 320 323 320 319 317 317 315 308 294 280 261 248 236 225 231 245 233 238 248 251 256 285 286 317 298 300 279 354 54 89 251 286 290 283 276 274 291 300 288 280 279 270 267 256 260
317 318 319 318 319 318 317 316 315 309 297 280 267 250 236 228 216 229 229 236 241 249 274 291 309 297 277 262 288 336 311 285 267 219 274 283 278 293 304 298 282 284 272 296 305 297 310
317 311 315 317 317 317 319 318 316 311 298 278 264 248 231 228 224 230 232 241 251 248 278 287 284 298 282 270 288 322 320 291 262 224 283 278 286 309 314 315 315 300 305 280 303 304 309
312 310 311 314 318 318 319 318 317 312 296 270 259 243 233 220 230 233 233 244 255 262 279 277 290 297 286 296 305 318 312 280 269 285 312 309 300 291 307 299 301 313 311 311 320 327 319
314 312 312 313 315 318 319 319 318 313 294 260 259 235 227 224 229 236 241 254 265 262 256 272 289 279 309 303 311 309 275 261 280 287 292 306 304 277 303 285 292 315 318 327 309 305 319
315 312 311 314 315 318 319 319 319 315 290 257 272 243 229 239 231 238 252 257 260 260 269 298 299 269 292 308 307 345 303 260 263 293 317 323 295 274 280 279 291 299 304 320 326 321 318
313 313 311 313 315 317 319 320 321 320 306 286 258 237 236 237 243 246 254 254 257 266 269 300 314 311 304 294 307 318 292 303 305 323 340 325 304 293 284 286 290 291 296 304 311 309 314
311 314 311 312 314 316 319 321 321 320 298 269 253 242 242 235 238 244 255 257 251 254 272 295 302 311 332 298 313 319 338 327 312 310 316 316 306 309 304 305 304 300 298 301 305 309 306
308 310 311 310 312 315 318 321 324 323 290 263 245 245 251 247 254 252 258 270 263 271 271 279 309 314 333 322 311 310 309 296 296 306 313 316 306 309 306 310 308 309 308 313 311 315 318
307 310 311 310 311 313 316 319 324 328 304 259 252 253 247 260 262 263 274 277 271 289 305 316 336 333 328 322 321 321 320 306 310 314 303 310 315 308 306 310 311 309 313 319 324 322 321
305 306 307 309 310 311 313 316 319 324 319 263 261 251 254 258 271 273 279 296 304 313 328 327 325 317 321 320 326 323 316 313 314 304 303 307 314 317 314 319 307 322 345 351 346 339 339
306 307 308 307 307 309 312 314 315 317 316 278 282 274 268 266 273 280 286 288 303 307 308 307 307 314 316 316 307 306 305 304 305 303 304 309 313 314 315 318 322 321 323 323 325 322 330
306 305 305 306 307 308 309 311 314 315 317 294 300 298 284 279 278 282 283 288 293 298 295 297 307 309 311 311 313 304 300 303 304 313 320 317 317 316 317 314 313 328 331 329 330 310 321
316 314 312 309 307 307 308 309 312 314 315 305 306 313 299 278 279 282 283 282 290 297 301 302 300 304 315 312 308 303 301 308 302 305 310 306 309 308 313 312 317 323 327 332 311 315 323
319 318 318 316 314 311 310 308 309 312 314 313 305 317 311 290 278 289 290 292 296 300 299 303 308 309 313 310 312 311 308 312 312 315 314 310 307 308 312 311 309 325 326 318 324 327 323
322 321 319 318 317 315 311 309 308 309 311 312 311 309 308 307 293 297 279 287 303 308 310 309 305 307 313 314 313 315 311 315 315 308 324 311 316 313 315 316 327 329 331 330 327 326 325